[[{"header":{"parameterUnit":"m.s-1","parameterCategory":1,"la1":30.2991,"la2":30.254,"lo1":-89.0895,"lo2":-89.0444,"dy":0.0017,"dx":0.0017,"nx":28,"ny":28,"refTime":"2025-06-14T21:00:00:Z","depth":0,"parameterNumber":2,"parameterNumberName":"U-component_of_WINDS"},"data":[0,0,0,0,0,0,0,0,0,0,0,0,0,0,0,0,0,0,0,0,0,0,0,0,0,0,0,0,0,0,0,0,0,0,0,0,0,0,0,0,0,0,0,0,0,0,0,0,0,0,0,0,0,0,0,0,0,0,1.536,1.5361,0,1.5441,1.5442,1.5443,1.5502,1.5503,1.5503,1.5504,1.5592,1.5593,1.5595,0,0,0,0,0,0,0,0,0,0,0,0,0,1.5262,1.5264,1.536,1.5361,1.5362,1.5441,1.5442,1.5443,1.5502,1.5503,1.5504,1.5504,1.5591,1.5593,1.5595,0,0,0,0,0,0,0,0,0,0,0,0,0,1.532,1.5264,1.536,1.5401,1.5405,1.5441,1.5442,1.5444,1.5502,1.5503,1.5504,1.5504,1.559,1.5593,1.5596,1.5598,0,0,1.5604,1.5605,0,0,0,0,0,0,0,0,1.5317,1.5324,1.5394,1.5398,1.5403,1.5462,1.544,1.5496,1.5502,1.5466,1.5504,1.5505,1.5548,1.5555,1.5568,1.5602,1.5606,1.5604,1.5606,1.5607,1.5608,0,0,0,0,0,0,0,1.5313,1.5321,1.5392,1.5395,1.5401,1.5417,1.5426,1.5451,1.5502,1.5469,1.5473,1.5482,1.5551,1.5565,1.5571,1.5607,1.5604,1.5607,1.5609,1.561,1.565,1.5649,0,0,0,0,0,0,1.5302,1.5317,1.539,1.5395,1.5361,1.5418,1.5429,1.5443,1.5502,1.5511,1.5481,1.5484,1.556,1.5567,1.5574,1.5582,1.5607,1.561,1.5612,1.5651,1.565,1.5649,0,0,0,0,0,0,1.5299,1.5307,1.5387,1.5357,1.5368,1.5419,1.5435,1.5444,1.5458,1.5511,1.5521,1.5486,1.5561,1.557,1.5592,1.5586,1.5611,1.5614,1.5651,1.565,1.5649,1.5596,0,0,0,0,0,0,1.5296,1.5306,1.5306,1.5357,1.537,1.5401,1.5434,1.5445,1.5463,1.5467,1.5518,1.5527,1.5562,1.5587,1.5595,1.559,1.5616,1.5652,1.5651,1.565,1.5599,1.5594,1.5589,0,0,0,0,0,1.5292,1.5288,1.5306,1.5314,1.537,1.54,1.5408,1.5447,1.5462,1.5463,1.5497,1.5526,1.5585,1.5589,1.5598,1.5594,1.5653,1.5651,1.565,1.5601,1.5595,1.5589,0,0,0,0,0,0,1.5237,1.5296,1.5315,1.5327,1.5358,1.541,1.5413,1.5439,1.5467,1.5471,1.552,1.5531,1.5548,1.5573,1.5576,1.5601,1.5623,1.5623,1.5583,1.5577,1.5572,1.5566,1.5618,0,0,0,0,0,1.5225,1.5243,1.5295,1.53,1.5315,1.5361,1.5375,1.5403,1.5438,1.5451,1.5487,1.5521,1.5548,1.5564,1.5591,1.5604,1.5617,1.5606,1.5601,1.5597,1.5596,1.5606,1.5602,1.5645,1.5645,1.5645,0,0,1.5203,1.5238,1.5246,1.529,1.5317,1.5336,1.5371,1.539,1.5405,1.5455,1.5477,1.5505,1.5546,1.5563,1.5573,1.5585,1.5588,1.5595,1.5591,1.5593,1.5604,1.56,1.5597,1.5644,1.5644,1.5644,0,0,1.5171,1.5199,1.5207,1.5234,1.5274,1.5306,1.5308,1.5356,1.5376,1.5399,1.5437,1.5458,1.5502,1.553,1.555,1.5532,1.556,1.554,1.5515,1.5524,1.5521,1.5518,1.5513,1.551,1.554,1.554,1.554,0,1.5139,1.5167,1.5208,1.5225,1.5244,1.5289,1.5299,1.5324,1.5371,1.5385,1.5398,1.5456,1.5487,1.5512,1.5507,1.5522,1.5528,1.5534,1.5518,1.5516,1.5514,1.5509,1.5507,1.5537,1.5537,1.5538,1.5538,0,1.5125,1.5145,1.5147,1.5191,1.5211,1.5224,1.5269,1.5284,1.5311,1.5342,1.5366,1.5405,1.5442,1.545,1.5477,1.548,1.5487,1.5508,1.5531,1.5506,1.5503,1.5501,1.5533,1.5534,1.5535,1.5536,0,0,1.5058,1.5127,1.5127,1.5148,1.5197,1.5214,1.5231,1.5266,1.5278,1.5311,1.5327,1.5365,1.5386,1.5408,1.5439,1.5447,1.5432,1.5468,1.547,1.546,1.544,1.5423,1.542,1.5451,1.5451,1.5451,1.5436,0,1.5035,1.5064,1.5103,1.512,1.514,1.5185,1.52,1.5233,1.5263,1.5286,1.532,1.5345,1.537,1.5385,1.5395,1.5431,1.5428,1.5433,1.5468,1.5469,1.5455,1.5418,1.5399,1.5383,1.5435,1.5435,1.5435,0,1.501,1.5039,1.5058,1.5107,1.5117,1.5129,1.5165,1.5186,1.5226,1.5247,1.5274,1.5307,1.5329,1.535,1.5383,1.5385,1.5403,1.5423,1.5423,1.5428,1.5449,1.5421,1.5379,1.5376,1.5433,1.5433,1.5433,0,1.4959,1.5004,1.5021,1.5038,1.5096,1.5104,1.5129,1.5169,1.5188,1.5221,1.5234,1.527,1.5289,1.5317,1.536,1.5371,1.5388,1.5412,1.5408,1.5406,1.5408,1.5407,1.5368,1.542,1.542,1.542,1.542,0,1.4928,1.4938,1.4999,1.501,1.5023,1.507,1.5083,1.5112,1.5148,1.5167,1.5209,1.5226,1.5282,1.5307,1.5341,1.5363,1.5372,1.5391,1.54,1.5387,1.5384,1.5398,1.54,1.5419,1.5419,1.5419,1.542,0,1.4873,1.4914,1.4936,1.499,1.5004,1.5011,1.5058,1.5072,1.5105,1.5129,1.5137,1.5189,1.5221,1.5267,1.5312,1.5335,1.5353,1.5367,1.5338,1.5344,1.5336,1.5336,1.5304,1.5303,1.5355,1.5354,1.5354,0,1.4849,1.4858,1.4913,1.4928,1.4951,1.4975,1.4994,1.5042,1.5061,1.5108,1.5116,1.5151,1.5181,1.523,1.5273,1.5309,1.5325,1.5311,1.533,1.5317,1.5325,1.5323,1.5325,1.5306,1.5305,1.5304,1.5304,0,1.4804,1.4824,1.485,1.4884,1.4906,1.4936,1.4967,1.4978,1.5033,1.5053,1.5085,1.5108,1.5155,1.5189,1.5231,1.526,1.5291,1.5298,1.5299,1.5285,1.5268,1.5277,1.5326,1.5298,1.5298,1.5299,1.5299,1.5299,1.4764,1.4774,1.4814,1.4843,1.4872,1.4901,1.4916,1.4951,1.4978,1.5019,1.5046,1.5077,1.512,1.518,1.5207,1.5233,1.5246,1.5247,1.5248,1.5247,1.5243,1.5264,1.5241,1.5242,1.5242,1.5242,1.5242,0,1.472,1.4749,1.4775,1.4817,1.484,1.4868,1.4905,1.4923,1.4949,1.4985,1.5014,1.5052,1.5086,1.5133,1.5171,1.5184,1.52,1.5192,1.5192,1.5198,1.5228,1.5224,1.5179,1.5179,1.5179,1.5179,1.5179,1.5179,1.47,1.4719,1.4745,1.478,1.481,1.4839,1.4858,1.4886,1.4916,1.4956,1.4984,1.5014,1.5056,1.5098,1.5131,1.5145,1.5157,1.5145,1.5163,1.519,1.5196,1.5201,1.5197,1.5147,1.5147,1.513,1.513,1.513]},{"header":{"parameterUnit":"m.s-1","parameterCategory":1,"la1":30.2991,"la2":30.254,"lo1":-89.0895,"lo2":-89.0444,"dy":0.0017,"dx":0.0017,"nx":28,"ny":28,"refTime":"2025-06-14T21:00:00:Z","depth":0,"parameterNumber":3,"parameterNumberName":"V-component_of_WINDS"},"data":[0,0,0,0,0,0,0,0,0,0,0,0,0,0,0,0,0,0,0,0,0,0,0,0,0,0,0,0,0,0,0,0,0,0,0,0,0,0,0,0,0,0,0,0,0,0,0,0,0,0,0,0,0,0,0,0,0,0,3.0515,3.0515,0,3.0527,3.0527,3.0527,3.0549,3.0549,3.055,3.055,3.056,3.056,3.056,0,0,0,0,0,0,0,0,0,0,0,0,0,3.051,3.051,3.0515,3.0515,3.0515,3.0527,3.0527,3.0527,3.0549,3.0549,3.055,3.055,3.056,3.056,3.056,0,0,0,0,0,0,0,0,0,0,0,0,0,3.0516,3.051,3.0515,3.0528,3.0529,3.0527,3.0527,3.0527,3.0549,3.0549,3.055,3.0551,3.056,3.056,3.056,3.0546,0,0,3.0559,3.0559,0,0,0,0,0,0,0,0,3.0515,3.0516,3.0526,3.0527,3.0528,3.0537,3.0529,3.0533,3.0549,3.0541,3.055,3.0551,3.0552,3.0553,3.0553,3.0546,3.0547,3.0559,3.0559,3.0559,3.0559,0,0,0,0,0,0,0,3.0515,3.0515,3.052,3.0526,3.0527,3.0532,3.0534,3.053,3.0543,3.0542,3.0544,3.0545,3.0553,3.0553,3.0554,3.0547,3.0559,3.0559,3.0559,3.0559,3.0528,3.0527,0,0,0,0,0,0,3.0513,3.0515,3.0519,3.052,3.0523,3.0532,3.0533,3.0534,3.0543,3.0545,3.0544,3.0546,3.0553,3.0554,3.0554,3.0537,3.0559,3.0559,3.0559,3.0528,3.0527,3.0527,0,0,0,0,0,0,3.0513,3.0513,3.0519,3.0518,3.0519,3.0531,3.0531,3.0534,3.0534,3.0545,3.0547,3.0543,3.0554,3.0554,3.0548,3.0538,3.0559,3.0559,3.0529,3.0528,3.0527,3.0504,0,0,0,0,0,0,3.0512,3.0513,3.0508,3.0518,3.0519,3.0513,3.0531,3.0533,3.0534,3.0536,3.0544,3.0545,3.0554,3.0548,3.0547,3.0538,3.0559,3.053,3.0529,3.0527,3.0505,3.0502,3.0499,0,0,0,0,0,3.0512,3.0501,3.0508,3.0508,3.0514,3.0512,3.0513,3.0524,3.0533,3.0528,3.0535,3.0545,3.0539,3.0547,3.0547,3.0537,3.0531,3.0529,3.0527,3.0507,3.0503,3.0499,0,0,0,0,0,0,3.049,3.0503,3.051,3.0502,3.0506,3.0516,3.051,3.0519,3.052,3.0522,3.0535,3.0537,3.0528,3.0532,3.054,3.0523,3.0536,3.0535,3.0521,3.0517,3.0514,3.0513,3.0558,0,0,0,0,0,3.0484,3.0482,3.0494,3.0485,3.0487,3.0498,3.0498,3.0506,3.051,3.0512,3.0518,3.0521,3.052,3.0519,3.0518,3.0506,3.0507,3.0499,3.0496,3.0493,3.0492,3.0484,3.048,3.0521,3.0521,3.0521,0,0,3.0472,3.0478,3.0477,3.0481,3.0485,3.0482,3.0499,3.0496,3.0494,3.0511,3.0505,3.051,3.0514,3.0504,3.05,3.0507,3.0481,3.0491,3.0489,3.0489,3.0482,3.0478,3.0475,3.052,3.052,3.0521,0,0,3.0448,3.0453,3.0446,3.045,3.0456,3.0463,3.0462,3.047,3.0474,3.0468,3.0481,3.0478,3.0476,3.0478,3.0479,3.0455,3.0464,3.0454,3.0438,3.043,3.0427,3.0424,3.0415,3.0411,3.0453,3.0453,3.0453,0,3.0432,3.0429,3.0442,3.0437,3.0438,3.0454,3.0447,3.0449,3.0454,3.0454,3.0462,3.0459,3.0463,3.0454,3.0448,3.0448,3.0446,3.0453,3.0427,3.0424,3.0421,3.0412,3.0409,3.0451,3.0451,3.0452,3.0452,0,3.0408,3.0406,3.0399,3.0404,3.0404,3.0398,3.0409,3.0408,3.0416,3.0422,3.0415,3.0421,3.0421,3.042,3.0427,3.0411,3.0415,3.0424,3.0438,3.0416,3.0408,3.0404,3.0449,3.045,3.045,3.0451,0,0,3.037,3.0382,3.0379,3.0381,3.0389,3.0387,3.0381,3.0382,3.038,3.0382,3.0377,3.0375,3.0383,3.0384,3.0392,3.0386,3.0365,3.0396,3.0397,3.039,3.0346,3.0338,3.0334,3.0372,3.0371,3.0371,3.0345,0,3.0347,3.0339,3.035,3.0339,3.0336,3.0351,3.0346,3.0349,3.0355,3.0352,3.0358,3.0356,3.0368,3.0369,3.0363,3.0369,3.0356,3.0371,3.0366,3.0366,3.0364,3.0329,3.0321,3.0297,3.0342,3.0341,3.0341,0,3.032,3.0321,3.031,3.0317,3.0316,3.0311,3.0312,3.0311,3.0314,3.0319,3.0319,3.0329,3.0323,3.0336,3.0327,3.0337,3.0336,3.0338,3.0337,3.0336,3.0351,3.0327,3.0289,3.0285,3.0336,3.0337,3.0337,0,3.0292,3.0291,3.0284,3.0285,3.0294,3.029,3.0293,3.0297,3.0297,3.0298,3.0297,3.0297,3.0296,3.0296,3.0304,3.0314,3.0294,3.0309,3.0296,3.0296,3.0291,3.0291,3.0252,3.0291,3.0291,3.0291,3.0291,0,3.0264,3.0257,3.0271,3.0267,3.0258,3.027,3.0261,3.0266,3.0269,3.0265,3.0278,3.0274,3.0286,3.0283,3.029,3.028,3.028,3.0283,3.0285,3.0281,3.0281,3.028,3.0282,3.029,3.0291,3.0291,3.0291,0,3.0232,3.0242,3.0235,3.0243,3.0245,3.0238,3.0245,3.024,3.0247,3.0241,3.0241,3.025,3.0247,3.0256,3.0254,3.0258,3.0245,3.025,3.0244,3.0245,3.0231,3.0232,3.019,3.0184,3.0228,3.0228,3.0227,0,3.0213,3.0208,3.0215,3.0214,3.0216,3.0214,3.0213,3.0225,3.0224,3.0227,3.0222,3.022,3.0218,3.0212,3.0218,3.0216,3.0221,3.0206,3.0221,3.0217,3.0219,3.0219,3.0218,3.0203,3.0202,3.0202,3.0201,0,3.0179,3.0184,3.0183,3.0184,3.0183,3.0183,3.0185,3.0183,3.0195,3.0193,3.019,3.0189,3.0186,3.0184,3.0183,3.0186,3.0195,3.0197,3.0194,3.019,3.0186,3.0187,3.0234,3.0198,3.0198,3.0198,3.0198,3.0199,3.0152,3.0148,3.0152,3.015,3.0153,3.0154,3.015,3.0155,3.0153,3.0153,3.016,3.0155,3.0158,3.0158,3.0159,3.0155,3.0162,3.0157,3.0156,3.0155,3.0152,3.0187,3.0155,3.0155,3.0155,3.0155,3.0155,0,3.0118,3.0122,3.012,3.0122,3.012,3.013,3.0132,3.0129,3.0125,3.0127,3.0126,3.0121,3.0119,3.0124,3.0122,3.0118,3.0122,3.0117,3.0117,3.0117,3.0147,3.0149,3.0113,3.0113,3.0113,3.0113,3.0113,3.0113,3.01,3.0092,3.0097,3.009,3.0094,3.0089,3.0089,3.009,3.0092,3.0087,3.0084,3.0089,3.0092,3.009,3.0087,3.0089,3.0087,3.008,3.0083,3.0111,3.0115,3.0119,3.0121,3.008,3.008,3.0053,3.0053,3.0053]}]]